When you browse on this site, cookies collect data to enhance your experience and personalize the content and advertising you see.
Visit our Privacy Policy to learn more. By continuing to use the site, you agree to this use of cookies and data.
  • In Latvia
  • List of Countries
  • For 7 days
  • Water Temperature
  • Weather Map
  • Weather Widgets
  • user-avatar
    Login

    Hourly Weather Ganja

    Today, 5 June, Friday

    Time Temperature Precipitation Wind Pressure Humidity
    00:00 +22°C° 0 mm 3 mps 724 mmHg 63%
    01:00 +21°C° 0.1 mm 3 mps 724 mmHg 67%
    02:00 +20°C° 0.1 mm 3 mps 724 mmHg 72%
    03:00 +19°C° 0 mm 2 mps 724 mmHg 76%
    04:00 +20°C° 0 mm 3 mps 724 mmHg 76%
    05:00 +20°C° 0 mm 3 mps 725 mmHg 75%
    06:00 +20°C° 0 mm 4 mps 725 mmHg 75%
    07:00 +22°C° 0 mm 4 mps 725 mmHg 69%
    08:00 +23°C° 0 mm 4 mps 725 mmHg 64%
    09:00 +26°C° 0 mm 4 mps 725 mmHg 58%
    10:00 +27°C° 0.2 mm 4 mps 725 mmHg 54%
    11:00 +28°C° 0.2 mm 4 mps 725 mmHg 51%
    12:00 +29°C° 0.2 mm 4 mps 725 mmHg 47%
    13:00 +30°C° 0.3 mm 4 mps 725 mmHg 45%
    14:00 +30°C° 0.3 mm 3 mps 725 mmHg 42%
    15:00 +30°C° 0 mm 3 mps 725 mmHg 39%
    16:00 +30°C° 0.1 mm 3 mps 725 mmHg 41%
    17:00 +29°C° 0.1 mm 3 mps 725 mmHg 44%
    18:00 +29°C° 0.1 mm 3 mps 726 mmHg 46%
    19:00 +27°C° 0.1 mm 3 mps 726 mmHg 47%
    20:00 +26°C° 0.1 mm 4 mps 727 mmHg 48%
    21:00 +23°C° 0.1 mm 4 mps 727 mmHg 50%
    22:00 +22°C° 0 mm 3 mps 728 mmHg 51%
    23:00 +22°C° 0 mm 3 mps 728 mmHg 53%

    Tomorrow, 6 June, Saturday

    Time Temperature Precipitation Wind Pressure Humidity
    00:00 +21°C° 0 mm 2 mps 728 mmHg 55%
    01:00 +20°C° 0 mm 2 mps 728 mmHg 57%
    02:00 +20°C° 0 mm 2 mps 728 mmHg 59%
    03:00 +19°C° 0 mm 2 mps 728 mmHg 61%
    04:00 +19°C° 0 mm 2 mps 728 mmHg 61%
    05:00 +20°C° 0 mm 2 mps 729 mmHg 61%
    06:00 +20°C° 0 mm 2 mps 729 mmHg 61%
    07:00 +21°C° 0 mm 2 mps 729 mmHg 59%
    08:00 +23°C° 0 mm 2 mps 729 mmHg 56%
    09:00 +24°C° 0 mm 3 mps 729 mmHg 54%
    10:00 +25°C° 0.1 mm 2 mps 729 mmHg 51%
    11:00 +26°C° 0.1 mm 2 mps 728 mmHg 48%
    12:00 +27°C° 0.1 mm 2 mps 728 mmHg 45%
    13:00 +28°C° 0.1 mm 2 mps 728 mmHg 43%
    14:00 +28°C° 0.1 mm 2 mps 728 mmHg 41%
    15:00 +29°C° 0.1 mm 1 mps 728 mmHg 38%
    16:00 +29°C° 0.1 mm 2 mps 728 mmHg 41%
    17:00 +28°C° 0.1 mm 2 mps 728 mmHg 44%
    18:00 +28°C° 0.1 mm 2 mps 728 mmHg 46%
    19:00 +27°C° 0 mm 2 mps 728 mmHg 49%
    20:00 +25°C° 0 mm 2 mps 729 mmHg 51%
    21:00 +24°C° 0 mm 3 mps 729 mmHg 54%
    22:00 +22°C° 0 mm 3 mps 729 mmHg 55%
    23:00 +21°C° 0 mm 3 mps 729 mmHg 56%

    Day after tomorrow, 7 June, Sunday

    Time Temperature Precipitation Wind Pressure Humidity
    00:00 +21°C° 0 mm 3 mps 729 mmHg 57%
    01:00 +20°C° 0 mm 3 mps 729 mmHg 59%
    02:00 +20°C° 0 mm 2 mps 729 mmHg 60%
    03:00 +19°C° 0 mm 2 mps 729 mmHg 62%
    04:00 +20°C° 0 mm 2 mps 729 mmHg 62%
    05:00 +21°C° 0 mm 1 mps 729 mmHg 62%
    06:00 +22°C° 0 mm 1 mps 728 mmHg 63%
    07:00 +23°C° 0 mm 1 mps 728 mmHg 61%
    08:00 +24°C° 0 mm 1 mps 728 mmHg 59%
    09:00 +25°C° 0 mm 2 mps 728 mmHg 57%
    10:00 +26°C° 0 mm 2 mps 728 mmHg 54%
    11:00 +27°C° 0 mm 2 mps 728 mmHg 52%
    12:00 +28°C° 0 mm 2 mps 727 mmHg 49%
    13:00 +29°C° 0 mm 2 mps 727 mmHg 46%
    14:00 +30°C° 0 mm 2 mps 726 mmHg 44%
    15:00 +30°C° 0 mm 2 mps 726 mmHg 42%
    16:00 +30°C° 0 mm 2 mps 726 mmHg 42%
    17:00 +30°C° 0 mm 2 mps 726 mmHg 43%
    18:00 +30°C° 0 mm 2 mps 726 mmHg 44%
    19:00 +28°C° 0 mm 2 mps 726 mmHg 47%
    20:00 +27°C° 0 mm 2 mps 726 mmHg 50%
    21:00 +25°C° 0 mm 2 mps 727 mmHg 53%
    22:00 +24°C° 0 mm 3 mps 727 mmHg 54%
    23:00 +24°C° 0 mm 3 mps 726 mmHg 55%

    8 June, Monday

    Time Temperature Precipitation Wind Pressure Humidity
    00:00 +22°C° 0 mm 3 mps 726 mmHg 56%
    01:00 +21°C° 0 mm 3 mps 726 mmHg 57%
    02:00 +21°C° 0 mm 2 mps 726 mmHg 58%
    03:00 +20°C° 0 mm 2 mps 726 mmHg 58%
    04:00 +22°C° 0 mm 1 mps 726 mmHg 58%
    05:00 +22°C° 0 mm 1 mps 726 mmHg 58%
    06:00 +23°C° 0 mm 1 mps 726 mmHg 57%
    07:00 +24°C° 0 mm 1 mps 725 mmHg 56%
    08:00 +25°C° 0 mm 1 mps 725 mmHg 54%
    09:00 +26°C° 0 mm 2 mps 725 mmHg 53%
    10:00 +27°C° 0 mm 2 mps 725 mmHg 49%
    11:00 +29°C° 0 mm 2 mps 725 mmHg 46%
    12:00 +30°C° 0 mm 2 mps 724 mmHg 43%
    13:00 +31°C° 0 mm 3 mps 724 mmHg 39%
    14:00 +33°C° 0 mm 3 mps 724 mmHg 36%
    15:00 +34°C° 0 mm 3 mps 724 mmHg 33%
    16:00 +33°C° 0 mm 3 mps 723 mmHg 34%
    17:00 +31°C° 0 mm 3 mps 723 mmHg 36%
    18:00 +31°C° 0 mm 3 mps 723 mmHg 38%
    19:00 +29°C° 0 mm 3 mps 724 mmHg 40%
    20:00 +27°C° 0 mm 3 mps 724 mmHg 42%
    21:00 +26°C° 0 mm 3 mps 724 mmHg 44%
    22:00 +25°C° 0 mm 3 mps 724 mmHg 46%
    23:00 +23°C° 0 mm 4 mps 724 mmHg 47%

    9 June, Tuesday

    Time Temperature Precipitation Wind Pressure Humidity
    00:00 +22°C° 0 mm 4 mps 724 mmHg 48%
    01:00 +22°C° 0 mm 3 mps 724 mmHg 49%
    02:00 +21°C° 0 mm 2 mps 724 mmHg 49%
    03:00 +21°C° 0 mm 2 mps 724 mmHg 50%
    04:00 +22°C° 0 mm 1 mps 724 mmHg 51%
    05:00 +23°C° 0 mm 1 mps 724 mmHg 53%
    06:00 +24°C° 0 mm 1 mps 725 mmHg 54%
    07:00 +25°C° 0 mm 1 mps 725 mmHg 51%
    08:00 +26°C° 0 mm 2 mps 724 mmHg 47%
    09:00 +27°C° 0 mm 2 mps 724 mmHg 44%
    10:00 +28°C° 0 mm 2 mps 724 mmHg 41%
    11:00 +30°C° 0 mm 2 mps 724 mmHg 38%
    12:00 +31°C° 0 mm 3 mps 724 mmHg 35%
    13:00 +31°C° 0 mm 3 mps 724 mmHg 34%
    14:00 +33°C° 0 mm 3 mps 724 mmHg 32%
    15:00 +34°C° 0 mm 3 mps 723 mmHg 30%
    16:00 +33°C° 0 mm 3 mps 723 mmHg 33%
    17:00 +33°C° 0 mm 3 mps 723 mmHg 35%
    18:00 +32°C° 0 mm 4 mps 723 mmHg 38%
    19:00 +30°C° 0 mm 4 mps 724 mmHg 40%
    20:00 +28°C° 0 mm 4 mps 724 mmHg 42%
    21:00 +26°C° 0 mm 4 mps 725 mmHg 45%
    22:00 +26°C° 0 mm 3 mps 725 mmHg 46%
    23:00 +25°C° 0 mm 3 mps 725 mmHg 46%

    10 June, Wednesday

    Time Temperature Precipitation Wind Pressure Humidity
    00:00 +25°C° 0 mm 2 mps 725 mmHg 47%
    01:00 +24°C° 0 mm 2 mps 725 mmHg 49%
    02:00 +24°C° 0 mm 2 mps 725 mmHg 51%
    03:00 +24°C° 0 mm 1 mps 725 mmHg 52%
    04:00 +24°C° 0 mm 1 mps 725 mmHg 53%
    05:00 +24°C° 0 mm 1 mps 725 mmHg 54%
    06:00 +22°C° 0 mm 0 mps 725 mmHg 55%
    07:00 +26°C° 0 mm 1 mps 725 mmHg 51%
    08:00 +27°C° 0 mm 1 mps 725 mmHg 46%
    09:00 +28°C° 0 mm 2 mps 726 mmHg 42%
    10:00 +29°C° 0.1 mm 2 mps 726 mmHg 40%
    11:00 +30°C° 0.1 mm 3 mps 726 mmHg 38%
    12:00 +31°C° 0.1 mm 3 mps 726 mmHg 36%
    13:00 +33°C° 0.1 mm 3 mps 725 mmHg 35%
    14:00 +33°C° 0.1 mm 3 mps 725 mmHg 34%
    15:00 +34°C° 0.1 mm 3 mps 725 mmHg 33%
    16:00 +33°C° 0 mm 3 mps 725 mmHg 35%
    17:00 +33°C° 0 mm 3 mps 725 mmHg 38%
    18:00 +32°C° 0 mm 2 mps 725 mmHg 40%
    19:00 +30°C° 0 mm 2 mps 725 mmHg 42%
    20:00 +29°C° 0 mm 2 mps 725 mmHg 45%
    21:00 +27°C° 0 mm 2 mps 726 mmHg 48%
    22:00 +26°C° 0 mm 2 mps 726 mmHg 48%
    23:00 +26°C° 0 mm 2 mps 726 mmHg 48%
    Show more